[[{"header":{"parameterUnit":"m.s-1","parameterCategory":1,"la1":30.2991,"la2":30.254,"lo1":-89.0895,"lo2":-89.0444,"dy":0.0017,"dx":0.0017,"nx":28,"ny":28,"refTime":"2025-08-25T09:00:00:Z","depth":0,"parameterNumber":2,"parameterNumberName":"U-component_of_WINDS"},"data":[0,0,0,0,0,0,0,0,0,0,0,0,0,0,0,0,0,0,0,0,0,0,0,0,0,0,0,0,0,0,0,0,0,0,0,0,0,0,0,0,0,0,0,0,0,0,0,0,0,0,0,0,0,0,0,0,0,0,-0.5776,-0.5775,0,-0.5723,-0.5722,-0.5722,-0.5647,-0.5645,-0.5644,-0.5643,-0.559,-0.559,-0.559,0,0,0,0,0,0,0,0,0,0,0,0,0,-0.5815,-0.5814,-0.5776,-0.5775,-0.5774,-0.5723,-0.5722,-0.5721,-0.5647,-0.5645,-0.5644,-0.5642,-0.559,-0.559,-0.559,0,0,0,0,0,0,0,0,0,0,0,0,0,-0.5783,-0.5814,-0.5776,-0.5731,-0.5726,-0.5723,-0.5722,-0.5721,-0.5647,-0.5645,-0.5643,-0.5642,-0.559,-0.559,-0.559,-0.5626,0,0,-0.5589,-0.5589,0,0,0,0,0,0,0,0,-0.5785,-0.5782,-0.5738,-0.5734,-0.5729,-0.5689,-0.5716,-0.569,-0.5648,-0.5677,-0.5643,-0.5641,-0.5625,-0.5622,-0.5616,-0.5624,-0.5622,-0.5589,-0.5589,-0.5588,-0.5588,0,0,0,0,0,0,0,-0.5788,-0.5784,-0.5755,-0.5738,-0.5732,-0.5714,-0.5708,-0.5711,-0.5663,-0.5675,-0.5669,-0.5664,-0.5622,-0.5616,-0.5614,-0.5621,-0.5589,-0.5589,-0.5588,-0.5588,-0.5659,-0.5661,0,0,0,0,0,0,-0.5796,-0.5786,-0.5756,-0.5753,-0.5753,-0.5715,-0.5708,-0.5704,-0.5662,-0.5654,-0.5666,-0.5661,-0.5618,-0.5615,-0.5612,-0.5654,-0.5588,-0.5588,-0.5588,-0.5657,-0.566,-0.5662,0,0,0,0,0,0,-0.5797,-0.5794,-0.5758,-0.5768,-0.5762,-0.5717,-0.5713,-0.5704,-0.5698,-0.5655,-0.5647,-0.5669,-0.5616,-0.5612,-0.5624,-0.5651,-0.5588,-0.5588,-0.5655,-0.5658,-0.5661,-0.5738,0,0,0,0,0,0,-0.5799,-0.5795,-0.5808,-0.5769,-0.5762,-0.5771,-0.5714,-0.5704,-0.5698,-0.5691,-0.5656,-0.5648,-0.5614,-0.5625,-0.5624,-0.565,-0.5588,-0.5652,-0.5656,-0.566,-0.5732,-0.5743,-0.5752,0,0,0,0,0,-0.58,-0.5831,-0.5809,-0.5806,-0.5777,-0.5772,-0.5769,-0.5728,-0.57,-0.5713,-0.5686,-0.565,-0.5648,-0.5627,-0.5625,-0.5651,-0.565,-0.5655,-0.5659,-0.5728,-0.5741,-0.5752,0,0,0,0,0,0,-0.5874,-0.5825,-0.58,-0.5819,-0.5801,-0.576,-0.5775,-0.5743,-0.5732,-0.5726,-0.5677,-0.567,-0.5688,-0.567,-0.5647,-0.5686,-0.5644,-0.5648,-0.5697,-0.5708,-0.5718,-0.5723,-0.5587,0,0,0,0,0,-0.5893,-0.5893,-0.585,-0.5871,-0.5863,-0.5821,-0.5817,-0.5788,-0.5767,-0.5759,-0.5733,-0.5714,-0.571,-0.5708,-0.5701,-0.5729,-0.5722,-0.5747,-0.5756,-0.5765,-0.5769,-0.5785,-0.5796,-0.5677,-0.5677,-0.5677,0,0,-0.5931,-0.5904,-0.5907,-0.5885,-0.5868,-0.587,-0.5815,-0.5819,-0.582,-0.576,-0.577,-0.575,-0.5726,-0.5747,-0.5754,-0.5732,-0.5801,-0.577,-0.5777,-0.5778,-0.5791,-0.5803,-0.5813,-0.568,-0.568,-0.5679,0,0,-0.6003,-0.5981,-0.5998,-0.5981,-0.5955,-0.5927,-0.5932,-0.5896,-0.5881,-0.5889,-0.5845,-0.5846,-0.5839,-0.5825,-0.5816,-0.5885,-0.5851,-0.5884,-0.5935,-0.5951,-0.5961,-0.5969,-0.5995,-0.6005,-0.5888,-0.5889,-0.5889,0,-0.6054,-0.6054,-0.601,-0.6018,-0.601,-0.5956,-0.5973,-0.5959,-0.5933,-0.593,-0.5905,-0.5896,-0.5876,-0.5894,-0.5911,-0.5905,-0.591,-0.5888,-0.5963,-0.597,-0.5977,-0.6002,-0.6012,-0.5893,-0.5892,-0.5892,-0.5892,0,-0.612,-0.6121,-0.6138,-0.6114,-0.6108,-0.612,-0.6079,-0.6079,-0.6051,-0.6026,-0.6037,-0.6011,-0.6,-0.6001,-0.5973,-0.6016,-0.6003,-0.5971,-0.5929,-0.5994,-0.6016,-0.6025,-0.5899,-0.5898,-0.5896,-0.5895,0,0,-0.6236,-0.6189,-0.6196,-0.6185,-0.6153,-0.6154,-0.6164,-0.6153,-0.6155,-0.6138,-0.6147,-0.6143,-0.6114,-0.6105,-0.6075,-0.6089,-0.6148,-0.6056,-0.6055,-0.6076,-0.6195,-0.6221,-0.6232,-0.6125,-0.6127,-0.6128,-0.6198,0,-0.6303,-0.6318,-0.6279,-0.6304,-0.6306,-0.6255,-0.6265,-0.6247,-0.6224,-0.6223,-0.6198,-0.6197,-0.6158,-0.6153,-0.6164,-0.6138,-0.6172,-0.6133,-0.6135,-0.6135,-0.6144,-0.6244,-0.627,-0.6337,-0.6206,-0.6208,-0.6209,0,-0.6382,-0.6371,-0.6396,-0.6365,-0.6364,-0.6373,-0.6361,-0.636,-0.6339,-0.6322,-0.6313,-0.6278,-0.6288,-0.6246,-0.626,-0.6235,-0.6233,-0.6221,-0.6223,-0.6222,-0.6177,-0.6248,-0.6357,-0.6368,-0.6222,-0.6221,-0.622,0,-0.6467,-0.6458,-0.6473,-0.6465,-0.6428,-0.6436,-0.6421,-0.6398,-0.6395,-0.6384,-0.6381,-0.6372,-0.6367,-0.6361,-0.6326,-0.6298,-0.6345,-0.63,-0.6332,-0.6333,-0.6345,-0.6345,-0.6458,-0.6342,-0.6342,-0.6341,-0.6341,0,-0.6546,-0.6565,-0.6511,-0.652,-0.6539,-0.6495,-0.6516,-0.6496,-0.6477,-0.6482,-0.6437,-0.6443,-0.6395,-0.6397,-0.6369,-0.6386,-0.6384,-0.6371,-0.6364,-0.6376,-0.6378,-0.6376,-0.6371,-0.6344,-0.6344,-0.6343,-0.6343,0,-0.6645,-0.6609,-0.6622,-0.6586,-0.6578,-0.6594,-0.6564,-0.6572,-0.6546,-0.6554,-0.6553,-0.6514,-0.6514,-0.6478,-0.6469,-0.6451,-0.648,-0.6463,-0.6488,-0.6483,-0.6518,-0.6516,-0.6634,-0.6649,-0.6522,-0.6524,-0.6525,0,-0.6699,-0.6712,-0.6678,-0.6678,-0.6665,-0.6666,-0.6662,-0.662,-0.6618,-0.6597,-0.6608,-0.6604,-0.6598,-0.66,-0.6572,-0.6566,-0.655,-0.6592,-0.6548,-0.6561,-0.6553,-0.6553,-0.6555,-0.6601,-0.6603,-0.6604,-0.6605,0,-0.6799,-0.6781,-0.6776,-0.6767,-0.6764,-0.6754,-0.6742,-0.6745,-0.6699,-0.67,-0.6699,-0.6695,-0.6687,-0.6684,-0.6673,-0.6659,-0.6626,-0.6619,-0.6626,-0.664,-0.6654,-0.6649,-0.6514,-0.6617,-0.6615,-0.6615,-0.6614,-0.6613,-0.6877,-0.6887,-0.6866,-0.6863,-0.685,-0.684,-0.6846,-0.6822,-0.682,-0.681,-0.6786,-0.6789,-0.677,-0.6752,-0.6741,-0.6744,-0.6723,-0.6734,-0.6737,-0.674,-0.6748,-0.6652,-0.6742,-0.6741,-0.6741,-0.6741,-0.674,0,-0.6977,-0.696,-0.6959,-0.6943,-0.6942,-0.691,-0.6895,-0.6896,-0.69,-0.6885,-0.6881,-0.6881,-0.6878,-0.685,-0.6845,-0.6853,-0.6838,-0.6853,-0.6853,-0.685,-0.6766,-0.6761,-0.6866,-0.6866,-0.6866,-0.6866,-0.6866,-0.6866,-0.7028,-0.7044,-0.7024,-0.7033,-0.7017,-0.702,-0.7015,-0.7006,-0.6994,-0.6996,-0.6993,-0.6975,-0.6955,-0.6948,-0.6945,-0.6937,-0.6938,-0.6959,-0.6946,-0.6868,-0.6856,-0.6845,-0.684,-0.6959,-0.6959,-0.703,-0.7031,-0.7031]},{"header":{"parameterUnit":"m.s-1","parameterCategory":1,"la1":30.2991,"la2":30.254,"lo1":-89.0895,"lo2":-89.0444,"dy":0.0017,"dx":0.0017,"nx":28,"ny":28,"refTime":"2025-08-25T09:00:00:Z","depth":0,"parameterNumber":3,"parameterNumberName":"V-component_of_WINDS"},"data":[0,0,0,0,0,0,0,0,0,0,0,0,0,0,0,0,0,0,0,0,0,0,0,0,0,0,0,0,0,0,0,0,0,0,0,0,0,0,0,0,0,0,0,0,0,0,0,0,0,0,0,0,0,0,0,0,0,0,3.4928,3.4928,0,3.492,3.492,3.492,3.4899,3.4899,3.4899,3.4898,3.4889,3.4889,3.4889,0,0,0,0,0,0,0,0,0,0,0,0,0,3.4927,3.4927,3.4928,3.4928,3.4928,3.492,3.492,3.492,3.49,3.4899,3.4899,3.4898,3.4889,3.4889,3.4889,0,0,0,0,0,0,0,0,0,0,0,0,0,3.4924,3.4927,3.4928,3.4917,3.4916,3.492,3.492,3.492,3.49,3.4899,3.4898,3.4898,3.4889,3.4889,3.4889,3.4903,0,0,3.489,3.489,0,0,0,0,0,0,0,0,3.4924,3.4924,3.4919,3.4918,3.4917,3.491,3.4916,3.4914,3.49,3.4906,3.4898,3.4897,3.4897,3.4896,3.4896,3.4903,3.4903,3.489,3.489,3.489,3.489,0,0,0,0,0,0,0,3.4924,3.4924,3.4925,3.4919,3.4917,3.4912,3.4911,3.4916,3.4905,3.4905,3.4904,3.4903,3.4896,3.4896,3.4896,3.4902,3.489,3.489,3.489,3.489,3.4921,3.4922,0,0,0,0,0,0,3.4926,3.4924,3.4925,3.4925,3.4919,3.4913,3.4912,3.4913,3.4905,3.4903,3.4904,3.4902,3.4896,3.4895,3.4895,3.491,3.489,3.4891,3.4891,3.492,3.4921,3.4922,0,0,0,0,0,0,3.4926,3.4926,3.4925,3.4924,3.4924,3.4914,3.4915,3.4913,3.4913,3.4903,3.4901,3.4905,3.4895,3.4895,3.4902,3.491,3.4891,3.4891,3.4919,3.492,3.4921,3.4942,0,0,0,0,0,0,3.4926,3.4927,3.4932,3.4924,3.4924,3.4932,3.4916,3.4913,3.4913,3.4911,3.4905,3.4903,3.4895,3.4901,3.4902,3.491,3.4891,3.4919,3.492,3.4921,3.494,3.4943,3.4946,0,0,0,0,0,3.4926,3.4937,3.4932,3.4932,3.493,3.4933,3.4932,3.4922,3.4914,3.4919,3.4913,3.4903,3.491,3.4902,3.4903,3.4911,3.4918,3.4919,3.4921,3.4939,3.4943,3.4946,0,0,0,0,0,0,3.4945,3.4936,3.493,3.4939,3.4937,3.4929,3.4935,3.4927,3.4926,3.4925,3.4913,3.4911,3.492,3.4916,3.4908,3.4924,3.4912,3.4914,3.4926,3.4929,3.4932,3.4932,3.4891,0,0,0,0,0,3.4951,3.4954,3.4946,3.4955,3.4954,3.4945,3.4946,3.4939,3.4935,3.4934,3.4929,3.4926,3.4927,3.4928,3.4929,3.4941,3.4938,3.4946,3.4949,3.4952,3.4953,3.4958,3.4961,3.4927,3.4927,3.4927,0,0,3.4961,3.4957,3.4959,3.4958,3.4956,3.4959,3.4944,3.4948,3.495,3.4935,3.494,3.4937,3.4933,3.4942,3.4946,3.4939,3.4962,3.4954,3.4956,3.4955,3.496,3.4963,3.4966,3.4928,3.4928,3.4927,0,0,3.4982,3.498,3.4987,3.4985,3.4981,3.4975,3.4977,3.4971,3.4968,3.4974,3.4962,3.4965,3.4968,3.4965,3.4965,3.4987,3.4977,3.4988,3.5002,3.5007,3.501,3.5012,3.5019,3.5022,3.4989,3.4989,3.4989,0,3.4996,3.5,3.4991,3.4996,3.4996,3.4983,3.499,3.4989,3.4985,3.4985,3.4979,3.4982,3.4979,3.4987,3.4992,3.4993,3.4994,3.4987,3.501,3.5013,3.5015,3.5021,3.5024,3.499,3.499,3.499,3.499,0,3.5017,3.502,3.5027,3.5024,3.5025,3.5031,3.5023,3.5025,3.5018,3.5013,3.502,3.5016,3.5015,3.5017,3.5011,3.5024,3.5021,3.5013,3.5,3.5019,3.5025,3.5027,3.4992,3.4991,3.4991,3.4991,0,0,3.5048,3.5041,3.5043,3.5042,3.5038,3.504,3.5046,3.5046,3.5048,3.5047,3.5051,3.5054,3.5047,3.5046,3.504,3.5045,3.5061,3.5036,3.5036,3.504,3.5076,3.5081,3.5084,3.5056,3.5057,3.5057,3.5076,0,3.5066,3.5075,3.5068,3.5078,3.5081,3.507,3.5075,3.5073,3.5069,3.5071,3.5067,3.5069,3.5059,3.5059,3.5063,3.5058,3.5068,3.5057,3.5059,3.5059,3.5058,3.5087,3.5092,3.511,3.5078,3.5078,3.5079,0,3.5089,3.5089,3.51,3.5095,3.5096,3.5101,3.51,3.5103,3.51,3.5097,3.5097,3.509,3.5095,3.5084,3.5091,3.5084,3.5085,3.5082,3.5083,3.5081,3.5069,3.5085,3.5115,3.5117,3.5082,3.5082,3.5082,0,3.5109,3.5112,3.5118,3.5118,3.5113,3.5117,3.5115,3.5112,3.5113,3.5113,3.5113,3.5114,3.5114,3.5115,3.5108,3.5101,3.5116,3.5105,3.5113,3.5113,3.5114,3.5114,3.5144,3.5118,3.5118,3.5118,3.5118,0,3.5129,3.5136,3.5127,3.5131,3.5138,3.5131,3.5138,3.5135,3.5133,3.5136,3.5128,3.5131,3.5122,3.5124,3.5119,3.5125,3.5126,3.5123,3.5121,3.5123,3.5123,3.5122,3.512,3.5118,3.5118,3.5118,3.5118,0,3.5152,3.5146,3.5153,3.5148,3.5148,3.5153,3.5149,3.5153,3.5149,3.5153,3.5154,3.5147,3.515,3.5143,3.5145,3.5141,3.515,3.5147,3.5151,3.5149,3.5157,3.5156,3.5186,3.5189,3.5162,3.5162,3.5163,0,3.5165,3.5169,3.5166,3.5167,3.5166,3.5169,3.517,3.5163,3.5164,3.5163,3.5167,3.5168,3.5169,3.5174,3.5169,3.517,3.5166,3.5177,3.5166,3.5168,3.5165,3.5164,3.5164,3.5179,3.5179,3.5179,3.5179,0,3.5187,3.5185,3.5186,3.5187,3.5189,3.5189,3.5189,3.5191,3.5184,3.5186,3.5188,3.5189,3.5191,3.5192,3.5193,3.5191,3.5184,3.5183,3.5185,3.5186,3.5187,3.5185,3.5155,3.5182,3.5182,3.5181,3.5181,3.5181,3.5205,3.5208,3.5207,3.5209,3.5208,3.5208,3.5211,3.5208,3.521,3.5211,3.5207,3.5211,3.5209,3.5209,3.5208,3.5211,3.5206,3.5209,3.5209,3.5209,3.521,3.5188,3.5211,3.5211,3.5211,3.5211,3.5211,0,3.5226,3.5225,3.5227,3.5227,3.5229,3.5223,3.5223,3.5225,3.5228,3.5227,3.5229,3.5232,3.5234,3.523,3.5231,3.5234,3.5231,3.5235,3.5233,3.5233,3.5215,3.5213,3.5237,3.5237,3.5237,3.5237,3.5237,3.5237,3.5237,3.5243,3.5241,3.5246,3.5245,3.5248,3.5249,3.5249,3.5248,3.5252,3.5254,3.5252,3.525,3.5251,3.5253,3.5252,3.5252,3.5257,3.5254,3.5237,3.5234,3.5232,3.523,3.5257,3.5257,3.5272,3.5272,3.5272]}]]